Wind_Speed
16 15 16 17 17 19 19 19 20 19 19 19 19 19 18 18 18 17 17 16 16 17 16 16 17 17 16 16 17 18 18 19 19 20 21 21 21 20 21 21 21 21 21 21
17 17 18 17 17 17 17 18 18 19 19 18 18 17 17 18 17 16 16 16 16 17 16 16 17 17 16 16 17 17 18 19 19 20 21 21 21 20 20 20 20 21 20 20
18 18 18 17 15 16 17 16 17 18 18 18 17 17 17 17 17 16 16 16 17 16 16 16 16 16 15 16 17 16 17 18 19 19 20 20 20 20 19 20 20 19 20 19
18 17 17 15 16 17 16 16 16 17 17 17 16 17 17 17 18 18 17 15 15 15 15 15 15 15 16 16 16 17 18 18 18 18 19 20 19 19 18 18 19 19 18 18
18 17 16 16 16 16 17 16 17 16 16 16 16 16 17 17 17 17 15 15 14 14 14 14 14 15 14 14 15 16 16 17 16 17 18 18 17 17 17 18 19 18 18 17
17 17 17 16 16 15 16 16 16 16 16 16 16 16 15 15 15 15 14 13 13 13 12 12 12 12 13 14 14 15 15 15 15 16 16 16 16 16 17 17 17 17 17 16
17 17 15 14 14 15 16 16 16 15 15 15 16 15 15 14 14 14 13 12 12 11 11 11 12 12 13 13 14 14 14 14 14 15 16 16 15 16 17 16 16 16 16 15
17 16 13 14 14 15 15 15 15 15 15 14 13 13 13 13 13 13 12 11 11 10 11 11 11 12 12 12 13 13 13 13 14 15 15 15 15 15 15 16 15 15 15 15
16 14 13 13 13 14 14 14 14 14 14 13 12 11 11 12 12 11 10 10 10 10 9 10 10 9 10 11 12 12 12 12 12 14 13 14 14 14 15 16 15 15 15 15
14 13 14 14 13 13 13 13 12 12 11 11 11 10 10 10 9 9 8 8 8 8 9 9 8 8 9 11 11 12 11 11 12 13 13 13 14 15 15 16 15 15 15 16
14 13 13 13 13 13 12 11 10 9 9 8 8 8 7 7 7 7 7 7 7 7 7 7 7 8 9 9 10 10 11 11 11 12 13 14 14 15 15 15 15 15 16 16
12 11 11 12 11 10 10 9 8 7 6 6 5 5 5 5 5 5 6 6 6 6 5 6 6 7 7 8 8 9 10 11 11 12 13 15 15 15 15 15 16 16 16 17
12 10 9 9 9 8 7 7 7 6 5 5 5 4 4 4 4 4 4 4 4 4 4 5 6 7 7 7 8 9 10 10 11 12 13 14 14 15 15 15 16 16 17 17
9 9 8 7 8 7 6 6 5 5 4 4 4 4 4 4 3 3 3 3 3 3 4 5 6 6 7 7 8 9 9 10 11 12 13 14 14 14 15 16 16 17 18 18
8 7 7 6 6 5 4 4 4 4 3 3 3 3 2 2 2 2 2 2 2 3 4 5 5 6 6 7 8 9 10 11 13 13 14 14 14 14 16 17 17 18 18 19
7 6 5 4 4 3 3 3 3 2 2 2 2 1 0 1 1 1 1 1 2 3 4 4 5 6 6 8 9 10 11 12 13 13 14 14 14 15 16 17 18 19 20 20
7 6 5 4 3 3 3 3 3 3 3 3 2 2 2 2 2 1 1 1 2 3 4 5 5 6 7 9 10 11 12 12 13 13 13 14 15 16 17 18 19 20 21 21
7 5 5 4 4 3 3 3 3 3 4 3 3 3 3 3 3 2 3 3 3 4 5 6 6 7 8 9 10 11 11 12 13 14 14 15 16 17 18 19 20 21 22 22
8 7 6 5 5 5 4 4 4 4 4 4 4 4 4 4 4 3 3 4 4 5 6 7 7 8 9 9 10 11 11 12 13 14 15 16 17 18 19 20 22 22 22 23
8 7 7 6 6 5 5 5 6 6 5 5 4 4 4 4 3 3 4 4 5 6 6 7 8 9 10 10 11 12 12 13 14 15 16 17 18 19 20 21 22 23 23 23
9 8 7 7 7 6 6 7 7 7 6 5 4 4 4 3 2 3 4 4 5 6 7 7 8 10 11 12 12 13 14 14 15 16 17 18 19 20 21 22 23 24 25 25
10 9 9 8 8 8 8 8 8 7 6 5 4 4 3 2 2 3 4 5 5 6 7 8 9 10 11 12 13 14 15 15 16 17 18 20 21 22 23 24 25 26 26 27
11 11 10 10 10 10 10 9 8 7 6 5 3 2 1 2 3 4 4 5 5 6 7 8 9 11 12 13 14 15 16 16 17 18 20 21 22 24 25 26 27 28 28 29
13 12 13 12 11 11 10 9 8 7 5 3 2 1 1 2 3 4 4 5 6 7 8 9 10 12 13 14 15 16 16 17 19 20 21 22 23 24 26 27 28 29 30 30
15 14 14 13 12 11 10 9 7 6 4 3 2 2 1 2 3 4 5 6 7 7 9 10 11 13 14 15 16 17 18 19 20 21 22 23 25 26 27 28 29 30 31 31
17 15 14 13 12 11 10 8 7 5 4 3 2 2 1 2 3 4 5 7 7 9 10 11 12 14 15 16 17 18 19 20 21 22 24 25 26 27 28 29 30 31 31 31
18 16 14 13 12 11 10 8 6 5 4 3 2 2 2 2 3 4 6 7 8 9 10 12 13 14 15 16 17 18 19 20 22 23 25 26 27 28 29 30 31 32 32 32
Wind_Direction
267 266 265 268 270 272 277 284 285 288 291 295 290 290 288 287 289 290 291 294 296 295 295 297 303 304 304 305 305 305 306 308 310 312 313 313 315 316 317 318 318 319 319 319
272 270 269 272 275 275 276 284 287 289 294 295 292 290 288 287 291 291 292 292 293 293 292 294 299 303 302 302 304 304 305 308 311 314 315 315 315 316 318 320 321 321 319 319
271 271 270 274 278 278 282 286 291 292 297 297 291 289 290 290 293 293 290 290 289 290 288 288 294 299 301 303 304 306 307 309 311 315 317 316 316 318 320 322 323 323 322 322
268 270 271 280 281 281 284 289 289 290 291 291 289 289 291 292 293 293 291 292 291 289 287 285 290 296 299 303 306 309 310 310 314 318 320 320 319 319 323 325 325 325 325 325
268 271 276 279 284 285 287 290 291 290 289 288 289 291 292 293 293 292 288 289 289 289 288 285 289 294 300 304 308 309 312 314 317 321 323 324 325 324 325 327 329 329 330 328
267 271 274 284 284 286 291 294 297 292 290 286 288 291 292 291 292 293 291 288 285 286 286 286 290 296 302 305 309 312 313 315 317 322 324 325 327 330 331 330 333 333 333 332
268 272 275 280 281 288 292 298 297 295 292 287 288 288 290 291 292 292 291 288 284 286 288 287 292 299 303 304 309 313 316 319 319 322 323 323 326 329 333 335 336 336 337 337
266 271 275 275 281 285 290 294 294 296 296 294 294 293 291 290 290 291 288 286 286 288 290 292 295 299 303 306 311 317 319 320 322 325 326 326 328 329 332 335 337 338 339 340
270 270 271 273 278 281 285 289 294 296 295 295 293 292 290 290 290 290 284 287 287 289 294 296 298 300 306 312 317 320 323 325 328 330 329 334 336 333 334 335 336 336 336 336
260 264 267 268 274 277 284 287 293 293 291 289 288 288 290 287 288 286 284 289 288 288 295 298 300 307 313 317 319 322 326 329 330 330 330 333 335 334 334 335 334 335 336 336
256 258 261 265 271 277 283 288 291 290 287 285 285 288 289 284 282 291 291 291 291 299 299 299 304 311 311 317 322 327 330 332 333 334 335 337 335 336 337 337 337 337 337 336
256 259 261 265 273 280 285 287 286 285 285 286 289 288 290 292 292 293 296 298 298 306 314 320 323 324 325 326 327 329 330 332 335 336 337 339 339 339 340 339 338 337 337 336
250 256 262 269 273 278 282 279 276 279 280 279 281 283 291 298 300 300 303 306 312 317 326 331 335 334 334 333 332 333 331 333 337 339 339 341 342 342 342 340 338 335 334 334
244 252 264 270 273 272 267 263 265 269 268 264 262 269 286 299 301 299 309 328 331 337 338 343 343 341 341 339 337 337 336 335 336 339 342 343 344 344 343 342 341 338 336 335
241 249 261 267 265 260 256 250 251 250 245 240 242 258 274 294 311 313 321 348 8 11 4 358 352 350 350 347 344 344 347 348 346 345 345 344 344 343 342 341 343 341 340 337
232 234 242 245 239 239 236 228 227 225 210 197 196 192 228 320 15 33 47 44 20 16 16 4 1 0 355 349 347 346 344 345 347 346 345 344 343 342 342 341 338 338 338 336
213 212 216 214 211 214 208 195 183 174 168 165 141 120 100 80 66 70 64 41 19 26 19 9 4 359 354 350 348 348 347 347 347 346 345 344 342 340 340 341 339 338 336 335
203 200 197 198 194 188 176 158 153 150 147 135 114 99 89 82 74 74 69 46 33 27 16 6 0 358 355 354 353 353 352 351 349 347 346 344 342 340 340 340 339 338 337 336
205 199 192 191 183 177 166 153 147 146 140 130 109 92 85 86 83 77 63 47 35 23 14 7 7 6 4 0 357 356 354 352 350 349 347 346 345 345 343 342 340 340 338 337
197 193 189 185 182 178 171 161 154 148 140 133 121 102 93 93 91 72 52 38 30 20 15 11 9 9 6 2 358 357 355 353 351 349 348 346 345 345 344 342 341 341 340 339
189 187 186 180 175 170 162 157 152 148 143 136 123 110 104 99 81 50 36 29 22 17 14 12 10 8 5 0 358 357 354 352 350 347 346 345 343 342 342 341 341 340 339 338
182 180 179 174 169 165 161 156 153 150 147 141 131 117 100 74 42 25 17 14 14 12 10 8 7 4 1 357 354 352 351 349 347 346 344 343 343 341 340 340 339 339 338 336
182 178 175 171 166 162 158 155 153 150 149 148 140 120 79 36 17 8 8 13 11 7 5 3 360 357 355 353 350 348 348 346 344 342 341 341 340 339 339 339 338 337 337 336
177 173 170 168 165 162 158 154 151 147 146 146 139 118 50 21 13 13 15 10 3 2 1 358 355 353 351 348 346 346 345 344 342 340 340 340 339 339 339 338 337 336 336 335
171 169 169 169 168 165 157 150 147 145 143 140 121 92 45 21 15 16 15 9 3 360 357 354 352 350 347 346 345 345 344 344 343 342 341 340 339 339 339 338 338 338 338 337
168 169 171 171 169 166 161 155 152 150 143 135 122 104 68 34 20 12 8 5 1 356 353 352 352 349 347 347 347 346 345 346 345 343 342 342 340 339 339 340 340 340 339 339
170 172 172 170 168 167 165 163 161 155 146 138 134 107 55 28 14 7 3 358 354 352 351 352 352 351 350 350 349 348 348 347 346 345 344 343 342 341 340 341 341 340 340 339
Height
5804 5805 5804 5804 5804 5803 5801 5800 5799 5798 5796 5795 5794 5793 5792 5792 5791 5790 5789 5789 5787 5786 5785 5784 5783 5781 5779 5777 5775 5773 5770 5768 5765 5762 5759 5756 5752 5749 5745 5741 5738 5734 5730 5726
5799 5800 5799 5799 5799 5798 5797 5796 5794 5792 5791 5789 5788 5787 5787 5786 5785 5784 5784 5783 5783 5782 5781 5780 5778 5777 5775 5774 5771 5769 5766 5764 5761 5758 5755 5752 5748 5745 5741 5737 5733 5730 5726 5722
5794 5794 5793 5794 5795 5793 5792 5791 5790 5787 5787 5784 5784 5783 5782 5781 5780 5779 5779 5778 5778 5777 5775 5775 5774 5772 5771 5769 5767 5764 5762 5760 5757 5754 5751 5747 5744 5741 5737 5733 5730 5726 5722 5718
5788 5789 5788 5791 5789 5787 5787 5786 5785 5783 5782 5780 5779 5778 5777 5776 5775 5774 5774 5773 5772 5771 5770 5769 5769 5768 5767 5765 5762 5760 5758 5756 5753 5750 5747 5744 5740 5737 5733 5730 5726 5722 5718 5714
5783 5782 5783 5785 5784 5783 5782 5781 5780 5778 5777 5776 5775 5774 5773 5771 5770 5769 5769 5768 5768 5767 5766 5765 5764 5764 5763 5761 5759 5757 5755 5752 5750 5747 5744 5740 5737 5733 5730 5726 5722 5718 5715 5711
5778 5777 5778 5781 5779 5777 5778 5777 5776 5773 5772 5771 5770 5769 5769 5767 5765 5764 5764 5763 5763 5763 5762 5761 5761 5760 5759 5757 5756 5754 5752 5749 5746 5744 5740 5737 5734 5730 5727 5724 5720 5716 5712 5709
5773 5773 5774 5774 5773 5773 5773 5773 5771 5769 5767 5766 5765 5765 5764 5762 5761 5760 5759 5759 5758 5758 5758 5758 5758 5757 5756 5754 5752 5750 5748 5746 5743 5740 5737 5734 5731 5728 5725 5721 5717 5714 5710 5707
5769 5769 5771 5769 5769 5769 5768 5766 5765 5763 5762 5761 5760 5759 5758 5757 5756 5756 5755 5754 5754 5754 5754 5754 5754 5753 5752 5751 5749 5747 5745 5743 5740 5737 5735 5732 5728 5725 5722 5719 5716 5712 5709 5705
5765 5766 5765 5765 5764 5764 5763 5761 5760 5758 5757 5756 5756 5755 5754 5753 5753 5752 5752 5751 5751 5751 5751 5751 5751 5750 5749 5748 5746 5744 5742 5740 5737 5735 5732 5729 5726 5723 5720 5717 5714 5710 5707 5704
5760 5761 5761 5760 5759 5759 5758 5757 5755 5754 5753 5752 5751 5751 5750 5750 5749 5749 5749 5748 5748 5748 5748 5748 5747 5747 5746 5745 5743 5742 5740 5738 5735 5733 5730 5727 5724 5721 5718 5715 5712 5708 5705 5702
5754 5755 5756 5756 5755 5755 5754 5753 5752 5751 5750 5749 5748 5748 5748 5747 5747 5747 5747 5747 5746 5746 5745 5745 5745 5744 5743 5742 5741 5740 5738 5735 5733 5730 5728 5725 5722 5719 5716 5713 5710 5706 5703 5700
5749 5751 5751 5751 5751 5750 5750 5749 5748 5748 5748 5747 5746 5746 5746 5745 5745 5745 5745 5745 5745 5744 5744 5743 5743 5742 5741 5740 5739 5737 5736 5733 5731 5729 5726 5723 5720 5717 5714 5711 5708 5704 5701 5697
5745 5746 5746 5747 5747 5747 5746 5746 5745 5745 5745 5745 5744 5744 5744 5744 5744 5744 5744 5743 5743 5743 5743 5742 5741 5740 5739 5738 5737 5735 5733 5732 5729 5727 5724 5721 5719 5715 5712 5709 5706 5702 5699 5695
5742 5742 5742 5743 5743 5743 5743 5743 5743 5743 5743 5743 5743 5743 5743 5743 5743 5743 5743 5742 5742 5742 5742 5741 5740 5739 5738 5737 5735 5734 5731 5730 5727 5725 5723 5720 5717 5714 5711 5708 5704 5700 5696 5693
5739 5739 5740 5740 5740 5740 5741 5741 5741 5742 5742 5742 5742 5742 5742 5742 5742 5742 5742 5742 5742 5741 5741 5740 5739 5738 5737 5736 5734 5733 5731 5728 5726 5723 5721 5718 5715 5712 5709 5706 5702 5698 5694 5690
5736 5737 5738 5738 5738 5738 5739 5739 5740 5740 5740 5740 5741 5741 5741 5741 5742 5742 5741 5741 5741 5741 5740 5740 5739 5738 5737 5735 5733 5731 5729 5727 5724 5722 5719 5716 5713 5710 5707 5703 5699 5696 5692 5688
5734 5735 5736 5736 5737 5737 5737 5738 5739 5739 5739 5740 5740 5741 5741 5741 5741 5741 5741 5741 5741 5741 5740 5739 5738 5737 5736 5734 5732 5730 5728 5726 5723 5720 5718 5715 5712 5708 5705 5701 5697 5693 5689 5684
5731 5732 5734 5735 5735 5736 5737 5738 5739 5739 5740 5740 5741 5741 5742 5742 5742 5742 5742 5742 5741 5741 5740 5739 5738 5736 5735 5733 5731 5729 5727 5724 5722 5719 5716 5713 5710 5706 5702 5698 5695 5690 5686 5681
5729 5731 5733 5734 5734 5736 5737 5738 5739 5740 5740 5741 5742 5742 5742 5742 5742 5742 5742 5742 5741 5740 5740 5738 5737 5736 5734 5732 5730 5728 5726 5723 5720 5718 5715 5711 5708 5704 5701 5696 5692 5688 5683 5678
5727 5729 5731 5733 5734 5735 5737 5738 5739 5740 5741 5742 5743 5743 5743 5743 5743 5743 5743 5742 5741 5740 5739 5738 5737 5735 5733 5731 5729 5727 5725 5722 5719 5716 5713 5710 5706 5703 5698 5694 5690 5685 5680 5675
5726 5728 5730 5732 5734 5735 5737 5738 5739 5740 5742 5742 5743 5743 5744 5744 5743 5743 5743 5742 5742 5740 5739 5738 5736 5735 5733 5731 5728 5726 5723 5720 5718 5715 5712 5708 5704 5700 5696 5691 5687 5681 5676 5671
5725 5727 5729 5731 5733 5735 5737 5738 5740 5741 5742 5743 5744 5744 5744 5744 5744 5743 5743 5742 5741 5740 5739 5737 5736 5734 5732 5730 5727 5725 5722 5719 5716 5713 5710 5706 5702 5698 5693 5688 5683 5678 5672 5667
5724 5727 5729 5731 5733 5736 5737 5739 5740 5742 5743 5744 5744 5745 5745 5744 5744 5743 5742 5742 5741 5740 5738 5737 5735 5733 5731 5729 5726 5723 5721 5717 5714 5711 5707 5703 5699 5694 5690 5685 5679 5674 5668 5662
5723 5726 5729 5731 5734 5736 5738 5740 5741 5742 5743 5744 5744 5745 5745 5744 5744 5743 5742 5741 5740 5739 5738 5736 5735 5732 5730 5727 5725 5722 5719 5716 5712 5708 5704 5700 5696 5691 5686 5680 5675 5669 5664 5658
5722 5726 5729 5732 5734 5736 5738 5740 5741 5743 5743 5744 5744 5744 5744 5744 5743 5742 5742 5741 5740 5739 5737 5735 5733 5731 5729 5726 5723 5720 5717 5713 5709 5706 5701 5697 5692 5687 5682 5676 5671 5665 5659 5653
5723 5726 5729 5732 5734 5736 5738 5740 5741 5743 5743 5744 5744 5744 5744 5743 5743 5742 5741 5740 5739 5738 5736 5734 5732 5730 5727 5724 5721 5718 5714 5711 5707 5703 5699 5694 5689 5683 5678 5672 5667 5661 5655 5649
5722 5726 5729 5732 5734 5736 5738 5740 5741 5742 5743 5744 5744 5744 5744 5743 5743 5742 5741 5740 5739 5737 5735 5733 5731 5728 5725 5722 5719 5716 5713 5709 5705 5700 5696 5691 5685 5680 5674 5668 5662 5657 5650 5644